| time (UTC) | temp C | wind direction | speed KPH | gust KPH | rain 1hr cm | rain 24hr cm | rain mn cm | humidity % | barometer mb |
| 20260507224505 | 17 | 206 | 9.7 | 16.1 | 0.00 | 0.00 | 0.00 | 47 | 1013.8 |
| 20260507223004 | 15 | 172 | 4.8 | 11.3 | 0.00 | 0.00 | 0.00 | 58 | 1013.8 |
| 20260507221504 | 14 | 199 | 4.8 | 11.3 | 0.00 | 0.00 | 0.00 | 61 | 1013.7 |
| 20260507214504 | 15 | 149 | 8.0 | 11.3 | 0.00 | 0.00 | 0.00 | 61 | 1013.8 |
| 20260507213005 | 15 | 146 | 1.6 | 8.0 | 0.00 | 0.00 | 0.00 | 61 | 1013.7 |
| 20260507211504 | 16 | 146 | 3.2 | 8.0 | 0.00 | 0.00 | 0.00 | 59 | 1013.7 |
| 20260507210004 | 16 | 146 | 1.6 | 4.8 | 0.00 | 0.00 | 0.00 | 57 | 1013.5 |
| 20260507203004 | 17 | 146 | 0.0 | 4.8 | 0.00 | 0.00 | 0.00 | 53 | 1013.3 |
| 20260507201504 | 17 | 146 | 1.6 | 4.8 | 0.00 | 0.00 | 0.00 | 53 | 1013.1 |
| 20260507200005 | 18 | 146 | 1.6 | 8.0 | 0.00 | 0.00 | 0.00 | 52 | 1013.0 |
| 20260507194504 | 18 | 146 | 3.2 | 9.7 | 0.00 | 0.00 | 0.00 | 52 | 1012.7 |
| 20260507193004 | 18 | 135 | 1.6 | 8.0 | 0.00 | 0.00 | 0.00 | 52 | 1012.4 |
| 20260507191504 | 19 | 84 | 3.2 | 4.8 | 0.00 | 0.00 | 0.00 | 49 | 1012.5 |
| 20260507190005 | 20 | 84 | 1.6 | 4.8 | 0.00 | 0.00 | 0.00 | 47 | 1012.5 |
| 20260507184504 | 20 | 55 | 0.0 | 4.8 | 0.00 | 0.00 | 0.00 | 46 | 1012.6 |
| 20260507183004 | 20 | 55 | 0.0 | 11.3 | 0.00 | 0.00 | 0.00 | 45 | 1012.6 |
| 20260507174504 | 20 | 62 | 1.6 | 11.3 | 0.00 | 0.00 | 0.00 | 42 | 1012.3 |
| 20260507173005 | 21 | 81 | 4.8 | 12.9 | 0.00 | 0.00 | 0.00 | 40 | 1012.4 |
| 20260507171504 | 21 | 98 | 3.2 | 16.1 | 0.00 | 0.00 | 0.00 | 39 | 1012.3 |
| 20260507164504 | 21 | 68 | 6.4 | 19.3 | 0.00 | 0.00 | 0.00 | 42 | 1012.6 |
| 20260507163004 | 21 | 54 | 11.3 | 20.9 | 0.00 | 0.00 | 0.00 | 42 | 1012.4 |
| 20260507161504 | 21 | 46 | 11.3 | 25.7 | 0.00 | 0.00 | 0.00 | 44 | 1012.4 |
| 20260507160004 | 21 | 59 | 12.9 | 24.1 | 0.00 | 0.00 | 0.00 | 43 | 1012.3 |
| 20260507154504 | 21 | 74 | 14.5 | 24.1 | 0.00 | 0.00 | 0.00 | 39 | 1012.5 |
| 20260507153004 | 21 | 40 | 11.3 | 24.1 | 0.00 | 0.00 | 0.00 | 45 | 1012.6 |
| 20260507151504 | 21 | 17 | 8.0 | 22.5 | 0.00 | 0.00 | 0.00 | 45 | 1012.6 |
| 20260507144504 | 21 | 22 | 9.7 | 24.1 | 0.00 | 0.00 | 0.00 | 46 | 1012.8 |
| 20260507143004 | 21 | 341 | 9.7 | 25.7 | 0.00 | 0.00 | 0.00 | 47 | 1012.9 |
| 20260507141504 | 21 | 338 | 11.3 | 24.1 | 0.00 | 0.00 | 0.00 | 47 | 1012.9 |
| 20260507140005 | 21 | 341 | 8.0 | 20.9 | 0.00 | 0.00 | 0.00 | 46 | 1013.2 |
| 20260507134504 | 21 | 342 | 8.0 | 22.5 | 0.00 | 0.00 | 0.00 | 47 | 1013.3 |
| 20260507133004 | 20 | 9 | 9.7 | 25.7 | 0.00 | 0.00 | 0.00 | 46 | 1013.4 |
| 20260507130005 | 20 | 352 | 9.7 | 22.5 | 0.00 | 0.00 | 0.00 | 47 | 1013.9 |
| 20260507124504 | 20 | 2 | 9.7 | 20.9 | 0.00 | 0.00 | 0.00 | 43 | 1014.1 |
| 20260507121504 | 20 | 30 | 14.5 | 27.4 | 0.00 | 0.00 | 0.00 | 43 | 1014.2 |
| 20260507120005 | 20 | 33 | 9.7 | 27.4 | 0.00 | 0.00 | 0.00 | 44 | 1014.4 |
| 20260507114504 | 20 | 40 | 8.0 | 24.1 | 0.00 | 0.00 | 0.00 | 45 | 1014.5 |
| 20260507113005 | 20 | 24 | 9.7 | 22.5 | 0.00 | 0.00 | 0.00 | 45 | 1014.5 |
| 20260507111504 | 20 | 21 | 9.7 | 20.9 | 0.00 | 0.00 | 0.00 | 46 | 1014.7 |
| 20260507110004 | 18 | 326 | 9.7 | 19.3 | 0.00 | 0.00 | 0.00 | 50 | 1014.9 |
| 20260507104504 | 18 | 323 | 9.7 | 16.1 | 0.00 | 0.00 | 0.00 | 50 | 1015.1 |
| 20260507100005 | 17 | 343 | 4.8 | 14.5 | 0.00 | 0.00 | 0.00 | 49 | 1015.6 |
| 20260507094504 | 18 | 39 | 3.2 | 11.3 | 0.00 | 0.00 | 0.00 | 49 | 1015.8 |
| 20260507093004 | 17 | 304 | 1.6 | 9.7 | 0.00 | 0.00 | 0.00 | 49 | 1016.1 |
| 20260507091504 | 17 | 3 | 3.2 | 8.0 | 0.00 | 0.00 | 0.00 | 49 | 1016.1 |
| 20260507090005 | 17 | 57 | 4.8 | 11.3 | 0.00 | 0.00 | 0.00 | 50 | 1016.2 |
| 20260507084503 | 16 | 294 | 1.6 | 4.8 | 0.00 | 0.00 | 0.00 | 54 | 1016.2 |
| 20260507083005 | 15 | 157 | 1.6 | 4.8 | 0.00 | 0.00 | 0.00 | 55 | 1016.3 |
| 20260507080005 | 13 | 117 | 3.2 | 4.8 | 0.00 | 0.00 | 0.00 | 58 | 1016.5 |
| 20260507074504 | 12 | 116 | 3.2 | 4.8 | 0.00 | 0.00 | 0.00 | 60 | 1016.6 |
| 20260507073004 | 12 | 140 | 3.2 | 4.8 | 0.00 | 0.00 | 0.00 | 62 | 1016.7 |
| 20260507071504 | 11 | 155 | 3.2 | 8.0 | 0.00 | 0.00 | 0.00 | 65 | 1016.6 |
| 20260507070008 | 10 | 189 | 4.8 | 9.7 | 0.00 | 0.00 | 0.00 | 68 | 1016.8 |
| 20260507064504 | 10 | 139 | 3.2 | 9.7 | 0.00 | 0.00 | 0.00 | 69 | 1016.7 |
| 20260507063004 | 9 | 128 | 3.2 | 8.0 | 0.00 | 0.00 | 0.00 | 69 | 1016.8 |
| 20260507061504 | 8 | 150 | 1.6 | 8.0 | 0.00 | 0.00 | 0.00 | 70 | 1016.7 |
| 20260507060004 | 8 | 150 | 4.8 | 8.0 | 0.00 | 0.00 | 0.00 | 69 | 1016.8 |
| 20260507054504 | 8 | 150 | 4.8 | 9.7 | 0.00 | 0.00 | 0.00 | 69 | 1016.8 |
| 20260507053005 | 7 | 151 | 3.2 | 8.0 | 0.00 | 0.00 | 0.00 | 69 | 1016.8 |
| 20260507051504 | 7 | 151 | 3.2 | 9.7 | 0.00 | 0.00 | 0.00 | 69 | 1016.9 |
| 20260507050005 | 7 | 164 | 3.2 | 8.0 | 0.00 | 0.00 | 0.00 | 69 | 1016.9 |
| 20260507043004 | 7 | 152 | 3.2 | 8.0 | 0.00 | 0.00 | 0.00 | 69 | 1016.8 |
| 20260507041504 | 8 | 152 | 3.2 | 8.0 | 0.00 | 0.00 | 0.00 | 69 | 1016.8 |
| 20260507040004 | 8 | 153 | 3.2 | 8.0 | 0.00 | 0.00 | 0.00 | 69 | 1017.0 |
| 20260507034504 | 8 | 152 | 3.2 | 8.0 | 0.00 | 0.00 | 0.00 | 69 | 1017.0 |
| 20260507033004 | 8 | 148 | 3.2 | 9.7 | 0.00 | 0.00 | 0.00 | 69 | 1017.0 |
| 20260507031504 | 8 | 154 | 3.2 | 8.0 | 0.00 | 0.00 | 0.00 | 69 | 1017.0 |
| 20260507030005 | 8 | 168 | 4.8 | 11.3 | 0.00 | 0.00 | 0.00 | 69 | 1017.1 |
| 20260507024505 | 8 | 157 | 4.8 | 8.0 | 0.00 | 0.00 | 0.00 | 68 | 1016.9 |
| 20260507023004 | 8 | 167 | 3.2 | 8.0 | 0.00 | 0.00 | 0.00 | 68 | 1017.1 |
| 20260507021503 | 8 | 153 | 1.6 | 4.8 | 0.00 | 0.00 | 0.00 | 68 | 1017.2 |
| 20260507020004 | 8 | 153 | 1.6 | 4.8 | 0.00 | 0.00 | 0.00 | 68 | 1017.2 |
| 20260507014504 | 8 | 153 | 3.2 | 9.7 | 0.00 | 0.00 | 0.00 | 68 | 1017.3 |
| 20260507013004 | 9 | 163 | 4.8 | 8.0 | 0.00 | 0.00 | 0.00 | 68 | 1017.3 |
| 20260507010004 | 9 | 152 | 4.8 | 8.0 | 0.00 | 0.00 | 0.00 | 68 | 1017.4 |
| 20260507004504 | 9 | 152 | 3.2 | 8.0 | 0.00 | 0.00 | 0.00 | 68 | 1017.5 |
| 20260507003004 | 9 | 153 | 4.8 | 8.0 | 0.00 | 0.00 | 0.00 | 68 | 1017.7 |
| 20260507001504 | 9 | 152 | 3.2 | 9.7 | 0.00 | 0.00 | 0.00 | 67 | 1017.8 |
| 20260507000004 | 9 | 150 | 4.8 | 11.3 | 0.00 | 0.00 | 0.00 | 67 | 1017.9 |
| 20260506234504 | 10 | 148 | 3.2 | 9.7 | 0.00 | 0.00 | 0.00 | 67 | 1017.9 |
| 20260506231504 | 10 | 150 | 3.2 | 8.0 | 0.00 | 0.00 | 0.00 | 67 | 1018.2 |